Year,Month,Day,Hour,Minute,Value (Times are PST for temperature in C)
2015,05,27,00,00,14.30
2015,05,27,00,01,14.30
2015,05,27,00,02,14.20
2015,05,27,00,03,14.20
2015,05,27,00,04,14.20
2015,05,27,00,05,14.20
2015,05,27,00,06,14.10
2015,05,27,00,07,14.10
2015,05,27,00,08,14.10
2015,05,27,00,09,14.00
2015,05,27,00,10,14.00
2015,05,27,00,11,14.00
2015,05,27,00,12,13.90
2015,05,27,00,13,13.90
2015,05,27,00,14,13.90
2015,05,27,00,15,13.80
2015,05,27,00,16,13.80
2015,05,27,00,17,13.80
2015,05,27,00,18,13.70
2015,05,27,00,19,13.70
2015,05,27,00,20,13.70
2015,05,27,00,21,13.70
2015,05,27,00,22,13.70
2015,05,27,00,23,13.60
2015,05,27,00,24,13.60
2015,05,27,00,25,13.60
2015,05,27,00,26,13.60
2015,05,27,00,27,13.60
2015,05,27,00,28,13.50
2015,05,27,00,29,13.50
2015,05,27,00,30,13.40
2015,05,27,00,31,13.40
2015,05,27,00,32,13.40
2015,05,27,00,33,13.40
2015,05,27,00,34,13.30
2015,05,27,00,35,13.30
2015,05,27,00,36,13.30
2015,05,27,00,37,13.30
2015,05,27,00,38,13.30
2015,05,27,00,39,13.20
2015,05,27,00,40,13.20
2015,05,27,00,41,13.20
2015,05,27,00,42,13.20
2015,05,27,00,43,13.10
2015,05,27,00,44,13.10
2015,05,27,00,45,13.10
2015,05,27,00,46,13.10
2015,05,27,00,47,13.00
2015,05,27,00,48,13.00
2015,05,27,00,49,13.00
2015,05,27,00,50,12.90
2015,05,27,00,51,12.90
2015,05,27,00,52,12.90
2015,05,27,00,53,12.80
2015,05,27,00,54,12.80
2015,05,27,00,55,12.80
2015,05,27,00,56,12.80
2015,05,27,00,57,12.80
2015,05,27,00,58,12.80
2015,05,27,00,59,12.80
2015,05,27,01,00,12.70
2015,05,27,01,01,12.70
2015,05,27,01,02,12.70
2015,05,27,01,03,12.70
2015,05,27,01,04,12.70
2015,05,27,01,05,12.70
2015,05,27,01,06,12.60
2015,05,27,01,07,12.60
2015,05,27,01,08,12.60
2015,05,27,01,09,12.60
2015,05,27,01,10,12.60
2015,05,27,01,11,12.50
2015,05,27,01,12,12.50
2015,05,27,01,13,12.50
2015,05,27,01,14,12.50
2015,05,27,01,15,12.40
2015,05,27,01,16,12.40
2015,05,27,01,17,12.40
2015,05,27,01,18,12.40
2015,05,27,01,19,12.30
2015,05,27,01,20,12.30
2015,05,27,01,21,12.30
2015,05,27,01,22,12.30
2015,05,27,01,23,12.30
2015,05,27,01,24,12.20
2015,05,27,01,25,12.20
2015,05,27,01,26,12.20
2015,05,27,01,27,12.20
2015,05,27,01,28,12.20
2015,05,27,01,29,12.20
2015,05,27,01,30,12.10
2015,05,27,01,31,12.10
2015,05,27,01,32,12.10
2015,05,27,01,33,12.10
2015,05,27,01,34,12.00
2015,05,27,01,35,12.00
2015,05,27,01,36,12.00
2015,05,27,01,37,12.00
2015,05,27,01,38,11.90
2015,05,27,01,39,11.90
2015,05,27,01,40,11.90
2015,05,27,01,41,11.90
2015,05,27,01,42,11.90
2015,05,27,01,43,11.80
2015,05,27,01,44,11.80
2015,05,27,01,45,11.80
2015,05,27,01,46,11.80
2015,05,27,01,47,11.80
2015,05,27,01,48,11.80
2015,05,27,01,49,11.80
2015,05,27,01,50,11.70
2015,05,27,01,51,11.70
2015,05,27,01,52,11.70
2015,05,27,01,53,11.70
2015,05,27,01,54,11.70
2015,05,27,01,55,11.70
2015,05,27,01,56,11.70
2015,05,27,01,57,11.60
2015,05,27,01,58,11.60
2015,05,27,01,59,11.60
2015,05,27,02,00,11.60
2015,05,27,02,01,11.60
2015,05,27,02,02,11.50
2015,05,27,02,03,11.50
2015,05,27,02,04,11.50
2015,05,27,02,05,11.50
2015,05,27,02,06,11.40
2015,05,27,02,07,11.40
2015,05,27,02,08,11.40
2015,05,27,02,09,11.40
2015,05,27,02,10,11.40
2015,05,27,02,11,11.30
2015,05,27,02,12,11.30
2015,05,27,02,13,11.30
2015,05,27,02,14,11.30
2015,05,27,02,15,11.30
2015,05,27,02,16,11.30
2015,05,27,02,17,11.30
2015,05,27,02,18,11.20
2015,05,27,02,19,11.20
2015,05,27,02,20,11.20
2015,05,27,02,21,11.20
2015,05,27,02,22,11.20
2015,05,27,02,23,11.20
2015,05,27,02,24,11.20
2015,05,27,02,25,11.20
2015,05,27,02,26,11.10
2015,05,27,02,27,11.10
2015,05,27,02,28,11.10
2015,05,27,02,29,11.10
2015,05,27,02,30,11.10
2015,05,27,02,31,11.00
2015,05,27,02,32,11.00
2015,05,27,02,33,11.00
2015,05,27,02,34,11.00
2015,05,27,02,35,10.90
2015,05,27,02,36,10.90
2015,05,27,02,37,10.90
2015,05,27,02,38,10.90
2015,05,27,02,39,10.90
2015,05,27,02,40,10.90
2015,05,27,02,41,10.90
2015,05,27,02,42,10.80
2015,05,27,02,43,10.80
2015,05,27,02,44,10.80
2015,05,27,02,45,10.80
2015,05,27,02,46,10.70
2015,05,27,02,47,10.70
2015,05,27,02,48,10.70
2015,05,27,02,49,10.70
2015,05,27,02,50,10.70
2015,05,27,02,51,10.60
2015,05,27,02,52,10.60
2015,05,27,02,53,10.60
2015,05,27,02,54,10.60
2015,05,27,02,55,10.60
2015,05,27,02,56,10.60
2015,05,27,02,57,10.60
2015,05,27,02,58,10.60
2015,05,27,02,59,10.50
2015,05,27,03,00,10.50
2015,05,27,03,01,10.50
2015,05,27,03,02,10.50
2015,05,27,03,03,10.50
2015,05,27,03,04,10.50
2015,05,27,03,05,10.40
2015,05,27,03,06,10.40
2015,05,27,03,07,10.40
2015,05,27,03,08,10.40
2015,05,27,03,09,10.40
2015,05,27,03,10,10.40
2015,05,27,03,11,10.40
2015,05,27,03,12,10.40
2015,05,27,03,13,10.40
2015,05,27,03,14,10.40
2015,05,27,03,15,10.40
2015,05,27,03,16,10.40
2015,05,27,03,17,10.40
2015,05,27,03,18,10.40
2015,05,27,03,19,10.40
2015,05,27,03,20,10.40
2015,05,27,03,21,10.30
2015,05,27,03,22,10.30
2015,05,27,03,23,10.30
2015,05,27,03,24,10.30
2015,05,27,03,25,10.30
2015,05,27,03,26,10.30
2015,05,27,03,27,10.30
2015,05,27,03,28,10.30
2015,05,27,03,29,10.30
2015,05,27,03,30,10.30
2015,05,27,03,31,10.30
2015,05,27,03,32,10.30
2015,05,27,03,33,10.30
2015,05,27,03,34,10.20
2015,05,27,03,35,10.20
2015,05,27,03,36,10.20
2015,05,27,03,37,10.20
2015,05,27,03,38,10.20
2015,05,27,03,39,10.20
2015,05,27,03,40,10.20
2015,05,27,03,41,10.20
2015,05,27,03,42,10.10
2015,05,27,03,43,10.10
2015,05,27,03,44,10.10
2015,05,27,03,45,10.10
2015,05,27,03,46,10.10
2015,05,27,03,47,10.10
2015,05,27,03,48,10.10
2015,05,27,03,49,10.10
2015,05,27,03,50,10.00
2015,05,27,03,51,10.00
2015,05,27,03,52,10.00
2015,05,27,03,53,10.00
2015,05,27,03,54,10.00
2015,05,27,03,55,10.00
2015,05,27,03,56,10.00
2015,05,27,03,57,9.90
2015,05,27,03,58,9.90
2015,05,27,03,59,9.90
2015,05,27,04,00,9.90
2015,05,27,04,01,9.90
2015,05,27,04,02,9.90
2015,05,27,04,03,9.90
2015,05,27,04,04,9.90
2015,05,27,04,05,9.80
2015,05,27,04,06,9.80
2015,05,27,04,07,9.80
2015,05,27,04,08,9.80
2015,05,27,04,09,9.80
2015,05,27,04,10,9.80
2015,05,27,04,11,9.80
2015,05,27,04,12,9.80
2015,05,27,04,13,9.80
2015,05,27,04,14,9.80
2015,05,27,04,15,9.80
2015,05,27,04,16,9.70
2015,05,27,04,17,9.70
2015,05,27,04,18,9.70
2015,05,27,04,19,9.70
2015,05,27,04,20,9.70
2015,05,27,04,21,9.70
2015,05,27,04,22,9.70
2015,05,27,04,23,9.70
2015,05,27,04,24,9.70
2015,05,27,04,25,9.70
2015,05,27,04,26,9.70
2015,05,27,04,27,9.60
2015,05,27,04,28,9.60
2015,05,27,04,29,9.60
2015,05,27,04,30,9.60
2015,05,27,04,31,9.60
2015,05,27,04,32,9.60
2015,05,27,04,33,9.60
2015,05,27,04,34,9.60
2015,05,27,04,35,9.60
2015,05,27,04,36,9.60
2015,05,27,04,37,9.60
2015,05,27,04,38,9.60
2015,05,27,04,39,9.60
2015,05,27,04,40,9.50
2015,05,27,04,41,9.50
2015,05,27,04,42,9.50
2015,05,27,04,43,9.50
2015,05,27,04,44,9.50
2015,05,27,04,45,9.60
2015,05,27,04,46,9.60
2015,05,27,04,47,9.50
2015,05,27,04,48,9.50
2015,05,27,04,49,9.50
2015,05,27,04,50,9.50
2015,05,27,04,51,9.50
2015,05,27,04,52,9.50
2015,05,27,04,53,9.50
2015,05,27,04,54,9.50
2015,05,27,04,55,9.50
2015,05,27,04,56,9.40
2015,05,27,04,57,9.40
2015,05,27,04,58,9.40
2015,05,27,04,59,9.40
2015,05,27,05,00,9.40
2015,05,27,05,01,9.40
2015,05,27,05,02,9.40
2015,05,27,05,03,9.40
2015,05,27,05,04,9.30
2015,05,27,05,05,9.30
2015,05,27,05,06,9.30
2015,05,27,05,07,9.30
2015,05,27,05,08,9.30
2015,05,27,05,09,9.30
2015,05,27,05,10,9.30
2015,05,27,05,11,9.30
2015,05,27,05,12,9.30
2015,05,27,05,13,9.30
2015,05,27,05,14,9.20
2015,05,27,05,15,9.20
2015,05,27,05,16,9.20
2015,05,27,05,17,9.20
2015,05,27,05,18,9.20
2015,05,27,05,19,9.20
2015,05,27,05,20,9.20
2015,05,27,05,21,9.20
2015,05,27,05,22,9.20
2015,05,27,05,23,9.20
2015,05,27,05,24,9.20
2015,05,27,05,25,9.20
2015,05,27,05,26,9.20
2015,05,27,05,27,9.20
2015,05,27,05,28,9.20
2015,05,27,05,29,9.20
2015,05,27,05,30,9.20
2015,05,27,05,31,9.20
2015,05,27,05,32,9.20
2015,05,27,05,33,9.20
2015,05,27,05,34,9.10
2015,05,27,05,35,9.10
2015,05,27,05,36,9.10
2015,05,27,05,37,9.10
2015,05,27,05,38,9.10
2015,05,27,05,39,9.10
2015,05,27,05,40,9.10
2015,05,27,05,41,9.10
2015,05,27,05,42,9.10
2015,05,27,05,43,9.10
2015,05,27,05,44,9.10
2015,05,27,05,45,9.10
2015,05,27,05,46,9.00
2015,05,27,05,47,9.00
2015,05,27,05,48,9.00
2015,05,27,05,49,9.00
2015,05,27,05,50,9.00
2015,05,27,05,51,9.00
2015,05,27,05,52,9.00
2015,05,27,05,53,9.00
2015,05,27,05,54,9.00
2015,05,27,05,55,9.10
2015,05,27,05,56,9.10
2015,05,27,05,57,9.10
2015,05,27,05,58,9.10
2015,05,27,05,59,9.10
2015,05,27,06,00,9.10
2015,05,27,06,01,9.10
2015,05,27,06,02,9.10
2015,05,27,06,03,9.10
2015,05,27,06,04,9.10
2015,05,27,06,05,9.10
2015,05,27,06,06,9.00
2015,05,27,06,07,9.00
2015,05,27,06,08,9.00
2015,05,27,06,09,9.00
2015,05,27,06,10,9.00
2015,05,27,06,11,9.00
2015,05,27,06,12,9.00
2015,05,27,06,13,9.00
2015,05,27,06,14,9.00
2015,05,27,06,15,9.00
2015,05,27,06,16,8.90
2015,05,27,06,17,8.90
2015,05,27,06,18,8.90
2015,05,27,06,19,9.00
2015,05,27,06,20,8.90
2015,05,27,06,21,9.00
2015,05,27,06,22,9.00
2015,05,27,06,23,9.00
2015,05,27,06,24,9.00
2015,05,27,06,25,9.00
2015,05,27,06,26,9.00
2015,05,27,06,27,9.00
2015,05,27,06,28,9.00
2015,05,27,06,29,9.00
2015,05,27,06,30,9.00
2015,05,27,06,31,9.00
2015,05,27,06,32,9.00
2015,05,27,06,33,9.00
2015,05,27,06,34,9.00
2015,05,27,06,35,9.00
2015,05,27,06,36,9.00
2015,05,27,06,37,9.00
2015,05,27,06,38,9.00
2015,05,27,06,39,9.00
2015,05,27,06,40,9.00
2015,05,27,06,41,9.00
2015,05,27,06,42,9.00
2015,05,27,06,43,9.00
2015,05,27,06,44,9.00
2015,05,27,06,45,9.00
2015,05,27,06,46,9.00
2015,05,27,06,47,9.00
2015,05,27,06,48,9.00
2015,05,27,06,49,9.10
2015,05,27,06,50,9.10
2015,05,27,06,51,9.10
2015,05,27,06,52,9.10
2015,05,27,06,53,9.20
2015,05,27,06,54,9.20
2015,05,27,06,55,9.20
2015,05,27,06,56,9.30
2015,05,27,06,57,9.30
2015,05,27,06,58,9.40
2015,05,27,06,59,9.40
2015,05,27,07,00,9.50
2015,05,27,07,01,9.50
2015,05,27,07,02,9.60
2015,05,27,07,03,9.60
2015,05,27,07,04,9.70
2015,05,27,07,05,9.80
2015,05,27,07,06,9.80
2015,05,27,07,07,9.90
2015,05,27,07,08,10.00
2015,05,27,07,09,10.00
2015,05,27,07,10,10.10
2015,05,27,07,11,10.20
2015,05,27,07,12,10.20
2015,05,27,07,13,10.20
2015,05,27,07,14,10.30
2015,05,27,07,15,10.30
2015,05,27,07,16,10.40
2015,05,27,07,17,10.50
2015,05,27,07,18,10.60
2015,05,27,07,19,10.60
2015,05,27,07,20,10.70
2015,05,27,07,21,10.80
2015,05,27,07,22,10.90
2015,05,27,07,23,11.00
2015,05,27,07,24,11.00
2015,05,27,07,25,11.10
2015,05,27,07,26,11.20
2015,05,27,07,27,11.20
2015,05,27,07,28,11.30
2015,05,27,07,29,11.30
2015,05,27,07,30,11.40
2015,05,27,07,31,11.40
2015,05,27,07,32,11.40
2015,05,27,07,33,11.50
2015,05,27,07,34,11.50
2015,05,27,07,35,11.50
2015,05,27,07,36,11.60
2015,05,27,07,37,11.60
2015,05,27,07,38,11.70
2015,05,27,07,39,11.70
2015,05,27,07,40,11.80
2015,05,27,07,41,11.90
2015,05,27,07,42,12.00
2015,05,27,07,43,12.00
2015,05,27,07,44,12.10
2015,05,27,07,45,12.20
2015,05,27,07,46,12.30
2015,05,27,07,47,12.40
2015,05,27,07,48,12.40
2015,05,27,07,49,12.40
2015,05,27,07,50,12.30
2015,05,27,07,51,12.30
2015,05,27,07,52,12.20
2015,05,27,07,53,12.20
2015,05,27,07,54,12.10
2015,05,27,07,55,12.10
2015,05,27,07,56,12.10
2015,05,27,07,57,12.00
2015,05,27,07,58,12.00
2015,05,27,07,59,12.00
2015,05,27,08,00,12.00
2015,05,27,08,01,12.00
2015,05,27,08,02,12.00
2015,05,27,08,03,12.00
2015,05,27,08,04,12.10
2015,05,27,08,05,12.10
2015,05,27,08,06,12.10
2015,05,27,08,07,12.10
2015,05,27,08,08,12.20
2015,05,27,08,09,12.20
2015,05,27,08,10,12.20
2015,05,27,08,11,12.20
2015,05,27,08,12,12.30
2015,05,27,08,13,12.30
2015,05,27,08,14,12.30
2015,05,27,08,15,12.30
2015,05,27,08,16,12.30
2015,05,27,08,17,12.40
2015,05,27,08,18,12.40
2015,05,27,08,19,12.40
2015,05,27,08,20,12.50
2015,05,27,08,21,12.50
2015,05,27,08,22,12.50
2015,05,27,08,23,12.60
2015,05,27,08,24,12.60
2015,05,27,08,25,12.60
2015,05,27,08,26,12.60
2015,05,27,08,27,12.60
2015,05,27,08,28,12.60
2015,05,27,08,29,12.70
2015,05,27,08,30,12.70
2015,05,27,08,31,12.70
2015,05,27,08,32,12.80
2015,05,27,08,33,12.80
2015,05,27,08,34,12.80
2015,05,27,08,35,12.90
2015,05,27,08,36,12.90
2015,05,27,08,37,12.90
2015,05,27,08,38,12.90
2015,05,27,08,39,12.90
2015,05,27,08,40,13.00
2015,05,27,08,41,13.00
2015,05,27,08,42,13.00
2015,05,27,08,43,13.10
2015,05,27,08,44,13.10
2015,05,27,08,45,13.20
2015,05,27,08,46,13.20
2015,05,27,08,47,13.20
2015,05,27,08,48,13.20
2015,05,27,08,49,13.20
2015,05,27,08,50,13.20
2015,05,27,08,51,13.20
2015,05,27,08,52,13.30
2015,05,27,08,53,13.30
2015,05,27,08,54,13.40
2015,05,27,08,55,13.50
2015,05,27,08,56,13.60
2015,05,27,08,57,13.70
2015,05,27,08,58,13.70
2015,05,27,08,59,13.70
2015,05,27,09,00,13.80
2015,05,27,09,01,13.80
2015,05,27,09,02,13.90
2015,05,27,09,03,13.90
2015,05,27,09,04,13.90
2015,05,27,09,05,14.00
2015,05,27,09,06,14.00
2015,05,27,09,07,14.10
2015,05,27,09,08,14.10
2015,05,27,09,09,14.30
2015,05,27,09,10,14.40
2015,05,27,09,11,14.50
2015,05,27,09,12,14.70
2015,05,27,09,13,14.80
2015,05,27,09,14,14.90
2015,05,27,09,15,14.90
2015,05,27,09,16,15.00
2015,05,27,09,17,15.00
2015,05,27,09,18,15.10
2015,05,27,09,19,15.10
2015,05,27,09,20,15.20
2015,05,27,09,21,15.30
2015,05,27,09,22,15.30
2015,05,27,09,23,15.40
2015,05,27,09,24,15.40
2015,05,27,09,25,15.40
2015,05,27,09,26,15.40
2015,05,27,09,27,15.40
2015,05,27,09,28,15.40
2015,05,27,09,29,15.50
2015,05,27,09,30,15.50
2015,05,27,09,31,15.60
2015,05,27,09,32,15.60
2015,05,27,09,33,15.70
2015,05,27,09,34,15.70
2015,05,27,09,35,15.80
2015,05,27,09,36,15.80
2015,05,27,09,37,15.80
2015,05,27,09,38,15.80
2015,05,27,09,39,15.80
2015,05,27,09,40,15.80
2015,05,27,09,41,15.80
2015,05,27,09,42,15.80
2015,05,27,09,43,15.80
2015,05,27,09,44,15.80
2015,05,27,09,45,15.80
2015,05,27,09,46,15.80
2015,05,27,09,47,15.80
2015,05,27,09,48,15.90
2015,05,27,09,49,16.00
2015,05,27,09,50,16.10
2015,05,27,09,51,16.20
2015,05,27,09,52,16.30
2015,05,27,09,53,16.40
2015,05,27,09,54,16.60
2015,05,27,09,55,16.70
2015,05,27,09,56,16.80
2015,05,27,09,57,16.80
2015,05,27,09,58,16.80
2015,05,27,09,59,16.80
2015,05,27,10,00,16.80
2015,05,27,10,01,16.90
2015,05,27,10,02,16.90
2015,05,27,10,03,17.00
2015,05,27,10,04,17.00
2015,05,27,10,05,17.10
2015,05,27,10,06,17.10
2015,05,27,10,07,17.20
2015,05,27,10,08,17.20
2015,05,27,10,09,17.10
2015,05,27,10,10,17.10
2015,05,27,10,11,17.00
2015,05,27,10,12,17.00
2015,05,27,10,13,16.90
2015,05,27,10,14,16.90
2015,05,27,10,15,16.90
2015,05,27,10,16,16.90
2015,05,27,10,17,16.90
2015,05,27,10,18,16.90
2015,05,27,10,19,16.90
2015,05,27,10,20,17.00
2015,05,27,10,21,17.00
2015,05,27,10,22,17.10
2015,05,27,10,23,17.10
2015,05,27,10,24,17.10
2015,05,27,10,25,17.10
2015,05,27,10,26,17.10
2015,05,27,10,27,17.10
2015,05,27,10,28,17.10
2015,05,27,10,29,17.20
2015,05,27,10,30,17.20
2015,05,27,10,31,17.20
2015,05,27,10,32,17.30
2015,05,27,10,33,17.30
2015,05,27,10,34,17.50
2015,05,27,10,35,17.60
2015,05,27,10,36,17.70
2015,05,27,10,37,17.80
2015,05,27,10,38,17.90
2015,05,27,10,39,18.10
2015,05,27,10,40,18.20
2015,05,27,10,41,18.20
2015,05,27,10,42,18.30
2015,05,27,10,43,18.40
2015,05,27,10,44,18.50
2015,05,27,10,45,18.50
2015,05,27,10,46,18.60
2015,05,27,10,47,18.60
2015,05,27,10,48,18.70
2015,05,27,10,49,18.80
2015,05,27,10,50,18.90
2015,05,27,10,51,19.10
2015,05,27,10,52,19.30
2015,05,27,10,53,19.50
2015,05,27,10,54,19.60
2015,05,27,10,55,19.70
2015,05,27,10,56,19.70
2015,05,27,10,57,19.60
2015,05,27,10,58,19.60
2015,05,27,10,59,19.50
2015,05,27,11,00,19.50
2015,05,27,11,01,19.50
2015,05,27,11,02,19.40
2015,05,27,11,03,19.40
2015,05,27,11,04,19.50
2015,05,27,11,05,19.50
2015,05,27,11,06,19.60
2015,05,27,11,07,19.60
2015,05,27,11,08,19.50
2015,05,27,11,09,19.50
2015,05,27,11,10,19.50
2015,05,27,11,11,19.50
2015,05,27,11,12,19.40
2015,05,27,11,13,19.40
2015,05,27,11,14,19.40
2015,05,27,11,15,19.50
2015,05,27,11,16,19.50
2015,05,27,11,17,19.70
2015,05,27,11,18,19.80
2015,05,27,11,19,19.90
2015,05,27,11,20,20.00
2015,05,27,11,21,20.00
2015,05,27,11,22,20.00
2015,05,27,11,23,20.00
2015,05,27,11,24,20.00
2015,05,27,11,25,20.10
2015,05,27,11,26,20.10
2015,05,27,11,27,20.20
2015,05,27,11,28,20.20
2015,05,27,11,29,20.30
2015,05,27,11,30,20.30
2015,05,27,11,31,20.30
2015,05,27,11,32,20.40
2015,05,27,11,33,20.50
2015,05,27,11,34,20.60
2015,05,27,11,35,20.70
2015,05,27,11,36,20.80
2015,05,27,11,37,20.80
2015,05,27,11,38,20.80
2015,05,27,11,39,20.90
2015,05,27,11,40,21.00
2015,05,27,11,41,21.10
2015,05,27,11,42,21.10
2015,05,27,11,43,21.20
2015,05,27,11,44,21.30
2015,05,27,11,45,21.30
2015,05,27,11,46,21.30
2015,05,27,11,47,21.30
2015,05,27,11,48,21.30
2015,05,27,11,49,21.30
2015,05,27,11,50,21.40
2015,05,27,11,51,21.40
2015,05,27,11,52,21.50
2015,05,27,11,53,21.60
2015,05,27,11,54,21.70
2015,05,27,11,55,21.80
2015,05,27,11,56,21.80
2015,05,27,11,57,21.90
2015,05,27,11,58,22.00
2015,05,27,11,59,22.10
2015,05,27,12,00,22.20
2015,05,27,12,01,22.20
2015,05,27,12,02,22.20
2015,05,27,12,03,22.20
2015,05,27,12,04,22.20
2015,05,27,12,05,22.20
2015,05,27,12,06,22.10
2015,05,27,12,07,22.10
2015,05,27,12,08,22.10
2015,05,27,12,09,22.00
2015,05,27,12,10,22.10
2015,05,27,12,11,22.00
2015,05,27,12,12,22.00
2015,05,27,12,13,22.10
2015,05,27,12,14,22.10
2015,05,27,12,15,22.20
2015,05,27,12,16,22.20
2015,05,27,12,17,22.30
2015,05,27,12,18,22.30
2015,05,27,12,19,22.40
2015,05,27,12,20,22.40
2015,05,27,12,21,22.50
2015,05,27,12,22,22.60
2015,05,27,12,23,22.60
2015,05,27,12,24,22.70
2015,05,27,12,25,23.00
2015,05,27,12,26,23.10
2015,05,27,12,27,23.20
2015,05,27,12,28,23.20
2015,05,27,12,29,23.20
2015,05,27,12,30,23.20
2015,05,27,12,31,23.20
2015,05,27,12,32,23.20
2015,05,27,12,33,23.20
2015,05,27,12,34,23.20
2015,05,27,12,35,23.20
2015,05,27,12,36,23.20
2015,05,27,12,37,23.20
2015,05,27,12,38,23.20
2015,05,27,12,39,23.20
2015,05,27,12,40,23.20
2015,05,27,12,41,23.30
2015,05,27,12,42,23.30
2015,05,27,12,43,23.40
2015,05,27,12,44,23.50
2015,05,27,12,45,23.60
2015,05,27,12,46,23.70
2015,05,27,12,47,23.80
2015,05,27,12,48,23.80
2015,05,27,12,49,23.80
2015,05,27,12,50,23.90
2015,05,27,12,51,23.90
2015,05,27,12,52,24.00
2015,05,27,12,53,24.10
2015,05,27,12,54,24.20
2015,05,27,12,55,24.30
2015,05,27,12,56,24.30
2015,05,27,12,57,24.30
2015,05,27,12,58,24.20
2015,05,27,12,59,24.20
2015,05,27,13,00,24.30
2015,05,27,13,01,24.40
2015,05,27,13,02,24.50
2015,05,27,13,03,24.60
2015,05,27,13,04,24.70
2015,05,27,13,05,24.80
2015,05,27,13,06,24.80
2015,05,27,13,07,24.80
2015,05,27,13,08,24.80
2015,05,27,13,09,24.90
2015,05,27,13,10,25.00
2015,05,27,13,11,25.00
2015,05,27,13,12,24.90
2015,05,27,13,13,24.80
2015,05,27,13,14,24.80
2015,05,27,13,15,24.80
2015,05,27,13,16,24.80
2015,05,27,13,17,24.80
2015,05,27,13,18,24.80
2015,05,27,13,19,24.80
2015,05,27,13,20,24.90
2015,05,27,13,21,24.90
2015,05,27,13,22,25.00
2015,05,27,13,23,25.10
2015,05,27,13,24,25.20
2015,05,27,13,25,25.30
2015,05,27,13,26,25.40
2015,05,27,13,27,25.50
2015,05,27,13,28,25.50
2015,05,27,13,29,25.60
2015,05,27,13,30,25.60
2015,05,27,13,31,25.60
2015,05,27,13,32,25.60
2015,05,27,13,33,25.50
2015,05,27,13,34,25.50
2015,05,27,13,35,25.40
2015,05,27,13,36,25.30
2015,05,27,13,37,25.30
2015,05,27,13,38,25.30
2015,05,27,13,39,25.30
2015,05,27,13,40,25.20
2015,05,27,13,41,25.20
2015,05,27,13,42,25.20
2015,05,27,13,43,25.20
2015,05,27,13,44,25.20
2015,05,27,13,45,25.20
2015,05,27,13,46,25.20
2015,05,27,13,47,25.20
2015,05,27,13,48,25.00
2015,05,27,13,49,25.00
2015,05,27,13,50,24.90
2015,05,27,13,51,24.90
2015,05,27,13,52,24.90
2015,05,27,13,53,24.80
2015,05,27,13,54,24.80
2015,05,27,13,55,24.80
2015,05,27,13,56,24.80
2015,05,27,13,57,24.80
2015,05,27,13,58,24.90
2015,05,27,13,59,24.90
2015,05,27,14,00,24.90
2015,05,27,14,01,24.90
2015,05,27,14,02,24.90
2015,05,27,14,03,24.90
2015,05,27,14,04,24.80
2015,05,27,14,05,24.80
2015,05,27,14,06,24.80
2015,05,27,14,07,24.90
2015,05,27,14,08,24.90
2015,05,27,14,09,24.90
2015,05,27,14,10,25.00
2015,05,27,14,11,25.00
2015,05,27,14,12,25.10
2015,05,27,14,13,25.10
2015,05,27,14,14,25.20
2015,05,27,14,15,25.20
2015,05,27,14,16,25.20
2015,05,27,14,17,25.20
2015,05,27,14,18,25.20
2015,05,27,14,19,25.10
2015,05,27,14,20,25.00
2015,05,27,14,21,25.00
2015,05,27,14,22,25.00
2015,05,27,14,23,25.00
2015,05,27,14,24,25.10
2015,05,27,14,25,25.10
2015,05,27,14,26,25.20
2015,05,27,14,27,25.20
2015,05,27,14,28,25.30
2015,05,27,14,29,25.30
2015,05,27,14,30,25.30
2015,05,27,14,31,25.30
2015,05,27,14,32,25.30
2015,05,27,14,33,25.20
2015,05,27,14,34,25.20
2015,05,27,14,35,25.20
2015,05,27,14,36,25.10
2015,05,27,14,37,25.10
2015,05,27,14,38,25.10
2015,05,27,14,39,25.10
2015,05,27,14,40,25.20
2015,05,27,14,41,25.20
2015,05,27,14,42,25.20
2015,05,27,14,43,25.10
2015,05,27,14,44,25.10
2015,05,27,14,45,25.10
2015,05,27,14,46,25.00
2015,05,27,14,47,25.10
2015,05,27,14,48,25.10
2015,05,27,14,49,25.10
2015,05,27,14,50,25.20
2015,05,27,14,51,25.30
2015,05,27,14,52,25.30
2015,05,27,14,53,25.20
2015,05,27,14,54,25.20
2015,05,27,14,55,25.20
2015,05,27,14,56,25.30
2015,05,27,14,57,25.30
2015,05,27,14,58,25.40
2015,05,27,14,59,25.40
2015,05,27,15,00,25.40
2015,05,27,15,01,25.40
2015,05,27,15,02,25.50
2015,05,27,15,03,25.50
2015,05,27,15,04,25.40
2015,05,27,15,05,25.40
2015,05,27,15,06,25.40
2015,05,27,15,07,25.40
2015,05,27,15,08,25.30
2015,05,27,15,09,25.30
2015,05,27,15,10,25.40
2015,05,27,15,11,25.50
2015,05,27,15,12,25.60
2015,05,27,15,13,25.60
2015,05,27,15,14,25.60
2015,05,27,15,15,25.60
2015,05,27,15,16,25.70
2015,05,27,15,17,25.70
2015,05,27,15,18,25.60
2015,05,27,15,19,25.60
2015,05,27,15,20,25.60
2015,05,27,15,21,25.60
2015,05,27,15,22,25.60
2015,05,27,15,23,25.60
2015,05,27,15,24,25.50
2015,05,27,15,25,25.40
2015,05,27,15,26,25.40
2015,05,27,15,27,25.50
2015,05,27,15,28,25.50
2015,05,27,15,29,25.60
2015,05,27,15,30,25.40
2015,05,27,15,31,25.30
2015,05,27,15,32,25.20
2015,05,27,15,33,25.20
2015,05,27,15,34,25.20
2015,05,27,15,35,25.20
2015,05,27,15,36,25.20
2015,05,27,15,37,25.20
2015,05,27,15,38,25.10
2015,05,27,15,39,25.10
2015,05,27,15,40,25.10
2015,05,27,15,41,25.20
2015,05,27,15,42,25.20
2015,05,27,15,43,25.30
2015,05,27,15,44,25.30
2015,05,27,15,45,25.30
2015,05,27,15,46,25.30
2015,05,27,15,47,25.30
2015,05,27,15,48,25.30
2015,05,27,15,49,25.30
2015,05,27,15,50,25.30
2015,05,27,15,51,25.30
2015,05,27,15,52,25.30
2015,05,27,15,53,25.30
2015,05,27,15,54,25.20
2015,05,27,15,55,25.20
2015,05,27,15,56,25.20
2015,05,27,15,57,25.30
2015,05,27,15,58,25.30
2015,05,27,15,59,25.30
2015,05,27,16,00,25.30
2015,05,27,16,01,25.20
2015,05,27,16,02,25.20
2015,05,27,16,03,25.10
2015,05,27,16,04,25.10
2015,05,27,16,05,25.00
2015,05,27,16,06,25.00
2015,05,27,16,07,25.00
2015,05,27,16,08,25.00
2015,05,27,16,09,25.10
2015,05,27,16,10,25.10
2015,05,27,16,11,25.10
2015,05,27,16,12,25.10
2015,05,27,16,13,25.10
2015,05,27,16,14,25.10
2015,05,27,16,15,25.10
2015,05,27,16,16,25.00
2015,05,27,16,17,25.00
2015,05,27,16,18,24.90
2015,05,27,16,19,24.90
2015,05,27,16,20,25.00
2015,05,27,16,21,25.00
2015,05,27,16,22,25.00
2015,05,27,16,23,25.00
2015,05,27,16,24,25.00
2015,05,27,16,25,25.00
2015,05,27,16,26,24.90
2015,05,27,16,27,24.90
2015,05,27,16,28,24.90
2015,05,27,16,29,24.90
2015,05,27,16,30,24.90
2015,05,27,16,31,25.00
2015,05,27,16,32,25.00
2015,05,27,16,33,25.00
2015,05,27,16,34,25.00
2015,05,27,16,35,24.90
2015,05,27,16,36,24.90
2015,05,27,16,37,25.00
2015,05,27,16,38,25.00
2015,05,27,16,39,25.00
2015,05,27,16,40,25.00
2015,05,27,16,41,25.00
2015,05,27,16,42,24.90
2015,05,27,16,43,24.90
2015,05,27,16,44,25.00
2015,05,27,16,45,25.00
2015,05,27,16,46,25.00
2015,05,27,16,47,25.00
2015,05,27,16,48,24.90
2015,05,27,16,49,24.90
2015,05,27,16,50,24.80
2015,05,27,16,51,24.90
2015,05,27,16,52,24.90
2015,05,27,16,53,24.90
2015,05,27,16,54,24.90
2015,05,27,16,55,24.90
2015,05,27,16,56,24.90
2015,05,27,16,57,24.90
2015,05,27,16,58,24.80
2015,05,27,16,59,24.80
2015,05,27,17,00,24.80
2015,05,27,17,01,24.80
2015,05,27,17,02,24.80
2015,05,27,17,03,24.80
2015,05,27,17,04,24.90
2015,05,27,17,05,24.90
2015,05,27,17,06,24.80
2015,05,27,17,07,24.70
2015,05,27,17,08,24.70
2015,05,27,17,09,24.70
2015,05,27,17,10,24.70
2015,05,27,17,11,24.70
2015,05,27,17,12,24.60
2015,05,27,17,13,24.60
2015,05,27,17,14,24.60
2015,05,27,17,15,24.50
2015,05,27,17,16,24.50
2015,05,27,17,17,24.50
2015,05,27,17,18,24.50
2015,05,27,17,19,24.50
2015,05,27,17,20,24.40
2015,05,27,17,21,24.40
2015,05,27,17,22,24.40
2015,05,27,17,23,24.40
2015,05,27,17,24,24.30
2015,05,27,17,25,24.20
2015,05,27,17,26,24.20
2015,05,27,17,27,24.20